Find Starlink 36932

NORAD ID: 68331 Int'l Des: 2026-059 Owner: SPXS Country: US Constellation: starlink operational
LEOCIRCULAR

Current View

Loading 3D Globe...

About Starlink 36932

Starlink 36932 (NORAD 68331) is a starlink constellation satellite (v2 mini) launched Mar 22, 2026 by SPXS of US. It operates in LEO, CIRCULAR orbit with a mass of 575.00 kg.

About Starlink 36932

Description loading...

Upcoming Passes

Passes for default location (London). Set your location on the main map for personalized predictions.

Altitude History

Loading altitude history...

Two-Line Element Set

1 68331U 26059L 26171.43122878 .00017600 00000-0 53060-3 0 9996
2 68331 53.1580 226.2107 0001065 80.3193 279.7930 15.34412891 13976
Epoch: Jun 20, 2026 • Age: 29 hours

Current Status

Altitude 468.3 km
Velocity 7.64 km/s
Sub-Earth Point 52.74°N, 171.14°W
Launch Date Mar 22, 2026
Age 0.2 years
Type internet

Technical Details

Classification Payload
Mass 575.00 kg
Dry Mass 530.00 kg
Total Mass 575.00 kg
Length 0.30 m
Diameter 4.10 m
Span 29.00 m
Shape Box + pan
Manufacturer SPXS
Bus Type Starlink V2MO
Phase Status In Orbit
Owner/State SPXS/US

Most Searched